TimeCAT,TemperatureF,Dew PointF,Humidity,Sea Level PressureIn,VisibilityMPH,Wind Direction,Wind SpeedMPH,Gust SpeedMPH,PrecipitationIn,Events,Conditions,WindDirDegrees,DateUTC
12:00 AM,-9999,-9999,N/A,0.00,-9999.0,East,6.9,-,N/A,,Clear,90,2012-11-11 22:00:00
1:00 AM,-9999,-9999,N/A,0.00,-9999.0,ESE,3.5,-,N/A,,Clear,110,2012-11-11 23:00:00
2:00 AM,74,,,,6,SSE,3.5,,,,Scattered Clouds,150,2012-11-12 00:00:00
2:00 AM,-9999,-9999,N/A,0.00,-9999.0,SSE,3.5,-,N/A,,Clear,150,2012-11-12 00:00:00
3:00 AM,-9999,-9999,N/A,0.00,-9999.0,SE,4.6,-,N/A,,Clear,140,2012-11-12 01:00:00
4:00 AM,-9999,-9999,N/A,0.00,-9999.0,SSE,4.6,-,N/A,,Clear,150,2012-11-12 02:00:00
5:00 AM,-9999,-9999,N/A,0.00,-9999.0,SSE,4.6,-,N/A,,Clear,150,2012-11-12 03:00:00
6:00 AM,-9999,-9999,N/A,0.00,-9999.0,ESE,3.5,-,N/A,,Clear,120,2012-11-12 04:00:00
7:00 AM,-9999,-9999,N/A,0.00,-9999.0,East,5.8,-,N/A,,Clear,90,2012-11-12 05:00:00
8:00 AM,-9999,-9999,N/A,0.00,-9999.0,East,9.2,-,N/A,,Clear,90,2012-11-12 06:00:00
9:00 AM,-9999,-9999,N/A,0.00,6.2,ENE,9.2,-,N/A,,Partly Cloudy,70,2012-11-12 07:00:00
10:00 AM,-9999,-9999,N/A,0.00,6.2,ESE,8.1,-,N/A,,Partly Cloudy,110,2012-11-12 08:00:00
11:00 AM,-9999,-9999,N/A,0.00,6.2,SE,5.8,-,N/A,,Partly Cloudy,140,2012-11-12 09:00:00
12:00 PM,-9999,-9999,N/A,0.00,6.2,SW,3.5,-,N/A,,Scattered Clouds,230,2012-11-12 10:00:00
1:00 PM,-9999,-9999,N/A,0.00,6.2,South,5.8,-,N/A,,Scattered Clouds,180,2012-11-12 11:00:00
2:00 PM,89,,,,6,NW,6.9,,,,Scattered Clouds,310,2012-11-12 12:00:00
2:00 PM,-9999,-9999,N/A,0.00,6.2,NW,6.9,-,N/A,,Partly Cloudy,310,2012-11-12 12:00:00
3:00 PM,-9999,-9999,N/A,0.00,-9999.0,North,-9999.0,-,N/A,,Partly Cloudy,0,2012-11-12 13:00:00
4:00 PM,-9999,-9999,N/A,0.00,6.2,SE,10.4,-,N/A,,Partly Cloudy,140,2012-11-12 14:00:00
5:00 PM,-9999,-9999,N/A,0.00,6.2,ESE,3.5,-,N/A,,Partly Cloudy,120,2012-11-12 15:00:00
6:00 PM,-9999,-9999,N/A,0.00,6.2,SE,6.9,-,N/A,,Partly Cloudy,140,2012-11-12 16:00:00
7:00 PM,-9999,-9999,N/A,0.00,6.2,ESE,5.8,-,N/A,,Partly Cloudy,110,2012-11-12 17:00:00
8:00 PM,-9999,-9999,N/A,0.00,-9999.0,SE,5.8,-,N/A,,Clear,130,2012-11-12 18:00:00
9:00 PM,-9999,-9999,N/A,0.00,-9999.0,SE,4.6,-,N/A,,Clear,140,2012-11-12 19:00:00
10:00 PM,-9999,-9999,N/A,0.00,-9999.0,SSE,4.6,-,N/A,,Clear,150,2012-11-12 20:00:00
11:00 PM,-9999,-9999,N/A,0.00,-9999.0,SSE,4.6,-,N/A,,Clear,150,2012-11-12 21:00:00